Location: Bratislava
(48.1500°N, 17.1167°E)
Time: 17:30:23
(UTC+01:00)

ISS - Pass Details

Date: 23 January 2020
Orbit: 415 x 422 km, 51.6° (Epoch: 26 February)

Event Time Altitude Azimuth Distance (km) Brightness Sun altitude
Rises 19:07:37 0° 251° (WSW) 2,374 1.3 -25.0°
Reaches altitude 10° 19:09:43 10° 253° (WSW) 1,509 0.0 -25.3°
Enters shadow 19:11:38 31° 258° (WSW) 769 -1.9 -25.6°
